Terug naar catalogus

STARLINK-6286

ActiefCommunicatieVLEO
NORAD 56558·PAYLOAD·🇺🇸 United States

Gelanceerd May 14, 2023 vanaf Cape Canaveral Space Force Station

Loading…

Volgende Passages (komende 24 uur)

TLE

VersSource: CelesTrak SupGP

Epoch: Sep 14, 2026, 21:42 UTC

1 56558C 23065BH  26257.90465278  .00026602  00000+0  96368-3 0  2575
2 56558  43.0020 238.4236 0001384 265.2032 314.4844 15.27560060    15

Volg STARLINK-6286 in realtime met AllMySat

Download on the App Store